Preview of NWS' New Version of Forecast
This preview is not operational and should not be used for support decisions.

Regional Weather Roundup (RWR)

Issued by Philadelphia/Mt Holly (PHI)

                            
000
ASUS41 KPHI 240012
RWRPHI

REGIONAL WEATHER ROUNDUP
NATIONAL WEATHER SERVICE MOUNT HOLLY NJ
800 PM EDT SAT MAR 23 2019

NOTE:  "FAIR" INDICATES FEW OR NO CLOUDS BELOW 12,000 FEET WITH NO
SIGNIFICANT WEATHER AND/OR OBSTRUCTIONS TO VISIBILITY.

 * = STATION DOES NOT REPORT PRECIPITATION (E.G. RAIN, SNOW, ETC.) 
        OR FOG.

NJZ015>026-240100-
SOUTHERN NEW JERSEY
  
CITY           SKY/WX    TMP DP  RH WIND       PRES   REMARKS
POMONA         FAIR      47  16  29 W15G22    30.11R                  
6HR MIN TEMP:  47; 6HR MAX TEMP:  52;                                

WILDWOOD*      FAIR      47  27  45 W13G20    30.15R                  
MILLVILLE      FAIR      46  15  28 W8        30.13R                  
WRIGHTSTOWN    FAIR      46  11  24 W15       30.06R                  
MOUNT HOLLY    FAIR      49  10  20 W10       30.11R                  
TRENTON        FAIR      47  11  23 W7        30.09R                  
6HR MIN TEMP:  46; 6HR MAX TEMP:  50;                                


$$
NJZ001>014-240100-
NORTHERN NEW JERSEY
  
CITY           SKY/WX    TMP DP  RH WIND       PRES   REMARKS
SUSSEX         FAIR      40  12  32 NW8       30.08R WCI  34          
ANDOVER*         N/A     40   8  26 MISG      30.08R                  
MORRISTOWN     CLEAR     43  12  28 NW7G14    30.08R                  
NEWARK         FAIR      45   7  21 NW21G32   30.06R                  
TETERBORO      FAIR      43  11  27 NW15G21   30.05R                  
CALDWELL       FAIR      43  10  26 NW9G22    30.08R                  
SOMERVILLE     FAIR      45   8  22 NW16G25   30.07R                  
ALLAIRE*       FAIR      46  10  23 NW15      30.08R                  
TOMS RIVER*    FAIR      46  12  25 NW9       30.09R                  

$$
PAZ043-044-047-054-055-060>062-066>071-240100-
EASTERN PENNSYLVANIA
  
CITY           SKY/WX    TMP DP  RH WIND       PRES   REMARKS
PHILADELPHIA   FAIR      50  11  20 W13       30.13R                  
6HR MIN TEMP:  48; 6HR MAX TEMP:  52;                                

NORTH PHILA    FAIR      48  12  23 W10       30.12R                  
BLUE BELL*     FAIR      45  14  29 W5        30.13R                  
DOYLESTOWN     FAIR      45   9  23 NW10G18   30.09R                  
QUAKERTOWN*    CLEAR     45   9  23 VRB7G14   30.11                   
PERKASIE*      FAIR      45   7  21 NW10G18   30.11R                  
POTTSTOWN      FAIR      43  12  28 W6        30.14R                  
LANCASTER      FAIR      45  16  31 W10       30.15R                  
COATESVILLE    FAIR      43  16  33 W14       30.15R                  
READING        FAIR      47  10  22 W13       30.13R                  
ALLENTOWN      FAIR      47   7  19 NW15      30.11R                  
6HR MIN TEMP:  47; 6HR MAX TEMP:  52;                                

MOUNT POCONO   FAIR      32  12  43 NW13      30.05R WCI  22          
6HR MIN TEMP:  32; 6HR MAX TEMP:  36;                                

HAZLETON       FAIR      37   5  25 W12G18    30.12R WCI  30          
LEHIGHTON      FAIR      43   7  22 W6        30.13R                  
WILKES BARRE   FAIR      39  11  31 W12       30.12R WCI  32          

$$
DEZALL-MDZ008-012-015-019-020-240100-
DELAWARE AND EASTERN MARYLAND
  
CITY           SKY/WX    TMP DP  RH WIND       PRES   REMARKS
WILMINGTON     FAIR      47  13  25 NW18G26   30.15R                  
6HR MIN TEMP:  47; 6HR MAX TEMP:  52;                                

DOVER          FAIR      47  19  32 W10       30.15R                  
GEORGETOWN     FAIR      50  19  29 NW10      30.17R                  
6HR MIN TEMP:  50; 6HR MAX TEMP:  54; 6HR PCP: TRACE;                

EASTON         CLEAR     48  19  32 W13G21    30.22R                  
PATUXENT       FAIR      49  18  29 NW13      30.20                   
OCEAN CITY     FAIR      46  22  38 MISG      30.17R                  
WALLOPS ISLAND FAIR      46  22  38 NW6       30.19R                  
CAMBRIDGE      CLEAR     48  21  34 W6G13     30.20R                  
SALISBURY      FAIR      48  21  34 W9        30.18R                  

$$
PAZ001-021-NYZ056-072-MDZ011-DCZ001-240100-
OTHER NEARBY LOCATIONS
  
CITY           SKY/WX    TMP DP  RH WIND       PRES   REMARKS
HARRISBURG     FAIR      46  18  32 W12       30.17R                  
STATE COLLEGE  CLEAR     39  12  33 W13G20    30.19R WCI  32          
WILLIAMSPORT   FAIR      41   7  24 NW9       30.16R                  
BINGHAMTON     FAIR      30  12  47 NW9       30.08R WCI  22          
NEW YORK CITY  FAIR      45   8  22 W10G24    30.07R                  
BALTIMORE      FAIR      47  17  30 W9        30.19R                  
WASHINGTON DC  FAIR      51  14  22 NW6       30.22R                  

$$